Year,Month,Day,Hour,Minute,Value (Times are PST for insolation in W/m^2)
2017,06,11,00,00,0.00
2017,06,11,00,01,0.00
2017,06,11,00,02,0.00
2017,06,11,00,03,0.00
2017,06,11,00,04,0.00
2017,06,11,00,05,0.00
2017,06,11,00,06,0.00
2017,06,11,00,07,0.00
2017,06,11,00,08,0.00
2017,06,11,00,09,0.00
2017,06,11,00,10,0.00
2017,06,11,00,11,0.00
2017,06,11,00,12,0.00
2017,06,11,00,13,0.00
2017,06,11,00,14,0.00
2017,06,11,00,15,0.00
2017,06,11,00,16,0.00
2017,06,11,00,17,0.00
2017,06,11,00,18,0.00
2017,06,11,00,19,0.00
2017,06,11,00,20,0.00
2017,06,11,00,21,0.00
2017,06,11,00,22,0.00
2017,06,11,00,23,0.00
2017,06,11,00,24,0.00
2017,06,11,00,25,0.00
2017,06,11,00,26,0.00
2017,06,11,00,27,0.00
2017,06,11,00,28,0.00
2017,06,11,00,29,0.00
2017,06,11,00,30,0.00
2017,06,11,00,31,0.00
2017,06,11,00,32,0.00
2017,06,11,00,33,0.00
2017,06,11,00,34,0.00
2017,06,11,00,35,0.00
2017,06,11,00,36,0.00
2017,06,11,00,37,0.00
2017,06,11,00,38,0.00
2017,06,11,00,39,0.00
2017,06,11,00,40,0.00
2017,06,11,00,41,0.00
2017,06,11,00,42,0.00
2017,06,11,00,43,0.00
2017,06,11,00,44,0.00
2017,06,11,00,45,0.00
2017,06,11,00,46,0.00
2017,06,11,00,47,0.00
2017,06,11,00,48,0.00
2017,06,11,00,49,0.00
2017,06,11,00,50,0.00
2017,06,11,00,51,0.00
2017,06,11,00,52,0.00
2017,06,11,00,53,0.00
2017,06,11,00,54,0.00
2017,06,11,00,55,0.00
2017,06,11,00,56,0.00
2017,06,11,00,57,0.00
2017,06,11,00,58,0.00
2017,06,11,00,59,0.00
2017,06,11,01,00,0.00
2017,06,11,01,01,0.00
2017,06,11,01,02,0.00
2017,06,11,01,03,0.00
2017,06,11,01,04,0.00
2017,06,11,01,05,0.00
2017,06,11,01,06,0.00
2017,06,11,01,07,0.00
2017,06,11,01,08,0.00
2017,06,11,01,09,0.00
2017,06,11,01,10,0.00
2017,06,11,01,11,0.00
2017,06,11,01,12,0.00
2017,06,11,01,13,0.00
2017,06,11,01,14,0.00
2017,06,11,01,15,0.00
2017,06,11,01,16,0.00
2017,06,11,01,17,0.00
2017,06,11,01,18,0.00
2017,06,11,01,19,0.00
2017,06,11,01,20,0.00
2017,06,11,01,21,0.00
2017,06,11,01,22,0.00
2017,06,11,01,23,0.00
2017,06,11,01,24,0.00
2017,06,11,01,25,0.00
2017,06,11,01,26,0.00
2017,06,11,01,27,0.00
2017,06,11,01,28,0.00
2017,06,11,01,29,0.00
2017,06,11,01,30,0.00
2017,06,11,01,31,0.00
2017,06,11,01,32,0.00
2017,06,11,01,33,0.00
2017,06,11,01,34,0.00
2017,06,11,01,35,0.00
2017,06,11,01,36,0.00
2017,06,11,01,37,0.00
2017,06,11,01,38,0.00
2017,06,11,01,39,0.00
2017,06,11,01,40,0.00
2017,06,11,01,41,0.00
2017,06,11,01,42,0.00
2017,06,11,01,43,0.00
2017,06,11,01,44,0.00
2017,06,11,01,45,0.00
2017,06,11,01,46,0.00
2017,06,11,01,47,0.00
2017,06,11,01,48,0.00
2017,06,11,01,49,0.00
2017,06,11,01,50,0.00
2017,06,11,01,51,0.00
2017,06,11,01,52,0.00
2017,06,11,01,53,0.00
2017,06,11,01,54,0.00
2017,06,11,01,55,0.00
2017,06,11,01,56,0.00
2017,06,11,01,57,0.00
2017,06,11,01,58,0.00
2017,06,11,01,59,0.00
2017,06,11,02,00,0.00
2017,06,11,02,01,0.00
2017,06,11,02,02,0.00
2017,06,11,02,03,0.00
2017,06,11,02,04,0.00
2017,06,11,02,05,0.00
2017,06,11,02,06,0.00
2017,06,11,02,07,0.00
2017,06,11,02,08,0.00
2017,06,11,02,09,0.00
2017,06,11,02,10,0.00
2017,06,11,02,11,0.00
2017,06,11,02,12,0.00
2017,06,11,02,13,0.00
2017,06,11,02,14,0.00
2017,06,11,02,15,0.00
2017,06,11,02,16,0.00
2017,06,11,02,17,0.00
2017,06,11,02,18,0.00
2017,06,11,02,19,0.00
2017,06,11,02,20,0.00
2017,06,11,02,21,0.00
2017,06,11,02,22,0.00
2017,06,11,02,23,0.00
2017,06,11,02,24,0.00
2017,06,11,02,25,0.00
2017,06,11,02,26,0.00
2017,06,11,02,27,0.00
2017,06,11,02,28,0.00
2017,06,11,02,29,0.00
2017,06,11,02,30,0.00
2017,06,11,02,31,0.00
2017,06,11,02,32,0.00
2017,06,11,02,33,0.00
2017,06,11,02,34,0.00
2017,06,11,02,35,0.00
2017,06,11,02,36,0.00
2017,06,11,02,37,0.00
2017,06,11,02,38,0.00
2017,06,11,02,39,0.00
2017,06,11,02,40,0.00
2017,06,11,02,41,0.00
2017,06,11,02,42,0.00
2017,06,11,02,43,0.00
2017,06,11,02,44,0.00
2017,06,11,02,45,0.00
2017,06,11,02,46,0.00
2017,06,11,02,47,0.00
2017,06,11,02,48,0.00
2017,06,11,02,49,0.00
2017,06,11,02,50,0.00
2017,06,11,02,51,0.00
2017,06,11,02,52,0.00
2017,06,11,02,53,0.00
2017,06,11,02,54,0.00
2017,06,11,02,55,0.00
2017,06,11,02,56,0.00
2017,06,11,02,57,0.00
2017,06,11,02,58,0.00
2017,06,11,02,59,0.00
2017,06,11,03,00,0.00
2017,06,11,03,01,0.00
2017,06,11,03,02,0.00
2017,06,11,03,03,0.00
2017,06,11,03,04,0.00
2017,06,11,03,05,0.00
2017,06,11,03,06,0.00
2017,06,11,03,07,0.00
2017,06,11,03,08,0.00
2017,06,11,03,09,0.00
2017,06,11,03,10,0.00
2017,06,11,03,11,0.00
2017,06,11,03,12,0.00
2017,06,11,03,13,0.00
2017,06,11,03,14,0.00
2017,06,11,03,15,0.00
2017,06,11,03,16,0.00
2017,06,11,03,17,0.00
2017,06,11,03,18,0.00
2017,06,11,03,19,0.00
2017,06,11,03,20,0.00
2017,06,11,03,21,0.00
2017,06,11,03,22,0.00
2017,06,11,03,23,0.00
2017,06,11,03,24,0.00
2017,06,11,03,25,0.00
2017,06,11,03,26,0.00
2017,06,11,03,27,0.00
2017,06,11,03,28,0.00
2017,06,11,03,29,0.00
2017,06,11,03,30,0.00
2017,06,11,03,31,0.00
2017,06,11,03,32,0.00
2017,06,11,03,33,0.00
2017,06,11,03,34,0.00
2017,06,11,03,35,0.00
2017,06,11,03,36,0.00
2017,06,11,03,37,0.00
2017,06,11,03,38,0.00
2017,06,11,03,39,0.00
2017,06,11,03,40,0.00
2017,06,11,03,41,0.00
2017,06,11,03,42,0.00
2017,06,11,03,43,0.00
2017,06,11,03,44,0.00
2017,06,11,03,45,0.00
2017,06,11,03,46,0.00
2017,06,11,03,47,0.00
2017,06,11,03,48,0.00
2017,06,11,03,49,0.00
2017,06,11,03,50,0.00
2017,06,11,03,51,0.00
2017,06,11,03,52,0.00
2017,06,11,03,53,0.00
2017,06,11,03,54,0.00
2017,06,11,03,55,0.00
2017,06,11,03,56,0.00
2017,06,11,03,57,0.00
2017,06,11,03,58,0.00
2017,06,11,03,59,0.00
2017,06,11,04,00,0.00
2017,06,11,04,01,0.00
2017,06,11,04,02,0.00
2017,06,11,04,03,0.00
2017,06,11,04,04,0.00
2017,06,11,04,05,0.00
2017,06,11,04,06,0.00
2017,06,11,04,07,0.00
2017,06,11,04,08,0.00
2017,06,11,04,09,0.00
2017,06,11,04,10,0.00
2017,06,11,04,11,0.00
2017,06,11,04,12,0.00
2017,06,11,04,13,0.00
2017,06,11,04,14,0.00
2017,06,11,04,15,0.00
2017,06,11,04,16,0.00
2017,06,11,04,17,0.00
2017,06,11,04,18,0.00
2017,06,11,04,19,0.00
2017,06,11,04,20,0.00
2017,06,11,04,21,0.00
2017,06,11,04,22,0.00
2017,06,11,04,23,0.00
2017,06,11,04,24,0.00
2017,06,11,04,25,0.00
2017,06,11,04,26,0.00
2017,06,11,04,27,0.00
2017,06,11,04,28,0.00
2017,06,11,04,29,0.00
2017,06,11,04,30,0.00
2017,06,11,04,31,0.00
2017,06,11,04,32,0.00
2017,06,11,04,33,0.00
2017,06,11,04,34,0.00
2017,06,11,04,35,0.00
2017,06,11,04,36,0.00
2017,06,11,04,37,0.00
2017,06,11,04,38,0.00
2017,06,11,04,39,0.00
2017,06,11,04,40,0.00
2017,06,11,04,41,0.00
2017,06,11,04,42,0.00
2017,06,11,04,43,0.00
2017,06,11,04,44,0.00
2017,06,11,04,45,0.00
2017,06,11,04,46,0.00
2017,06,11,04,47,0.00
2017,06,11,04,48,0.00
2017,06,11,04,49,0.00
2017,06,11,04,50,0.00
2017,06,11,04,51,0.00
2017,06,11,04,52,0.00
2017,06,11,04,53,0.00
2017,06,11,04,54,0.00
2017,06,11,04,55,0.00
2017,06,11,04,56,0.00
2017,06,11,04,57,0.00
2017,06,11,04,58,0.00
2017,06,11,04,59,0.00
2017,06,11,05,00,0.00
2017,06,11,05,01,0.00
2017,06,11,05,02,0.00
2017,06,11,05,03,0.00
2017,06,11,05,04,0.00
2017,06,11,05,05,0.00
2017,06,11,05,06,0.00
2017,06,11,05,07,0.00
2017,06,11,05,08,0.00
2017,06,11,05,09,0.00
2017,06,11,05,10,0.00
2017,06,11,05,11,0.00
2017,06,11,05,12,0.00
2017,06,11,05,13,0.00
2017,06,11,05,14,0.00
2017,06,11,05,15,0.00
2017,06,11,05,16,0.00
2017,06,11,05,17,4.80
2017,06,11,05,18,5.00
2017,06,11,05,19,5.00
2017,06,11,05,20,5.00
2017,06,11,05,21,5.00
2017,06,11,05,22,5.00
2017,06,11,05,23,5.00
2017,06,11,05,24,6.90
2017,06,11,05,25,7.00
2017,06,11,05,26,7.00
2017,06,11,05,27,8.00
2017,06,11,05,28,9.00
2017,06,11,05,29,9.00
2017,06,11,05,30,9.00
2017,06,11,05,31,9.20
2017,06,11,05,32,11.00
2017,06,11,05,33,11.00
2017,06,11,05,34,11.00
2017,06,11,05,35,11.00
2017,06,11,05,36,11.00
2017,06,11,05,37,11.80
2017,06,11,05,38,12.00
2017,06,11,05,39,12.00
2017,06,11,05,40,12.70
2017,06,11,05,41,14.00
2017,06,11,05,42,14.00
2017,06,11,05,43,14.00
2017,06,11,05,44,15.70
2017,06,11,05,45,16.00
2017,06,11,05,46,16.00
2017,06,11,05,47,16.00
2017,06,11,05,48,17.00
2017,06,11,05,49,18.00
2017,06,11,05,50,18.00
2017,06,11,05,51,18.90
2017,06,11,05,52,19.20
2017,06,11,05,53,21.00
2017,06,11,05,54,21.70
2017,06,11,05,55,24.00
2017,06,11,05,56,25.00
2017,06,11,05,57,25.70
2017,06,11,05,58,27.70
2017,06,11,05,59,29.90
2017,06,11,06,00,30.00
2017,06,11,06,01,30.00
2017,06,11,06,02,30.00
2017,06,11,06,03,30.00
2017,06,11,06,04,30.00
2017,06,11,06,05,30.00
2017,06,11,06,06,30.00
2017,06,11,06,07,30.40
2017,06,11,06,08,32.00
2017,06,11,06,09,32.00
2017,06,11,06,10,32.00
2017,06,11,06,11,32.00
2017,06,11,06,12,32.00
2017,06,11,06,13,30.10
2017,06,11,06,14,30.00
2017,06,11,06,15,30.00
2017,06,11,06,16,30.00
2017,06,11,06,17,30.00
2017,06,11,06,18,30.00
2017,06,11,06,19,30.00
2017,06,11,06,20,30.00
2017,06,11,06,21,30.00
2017,06,11,06,22,30.00
2017,06,11,06,23,30.00
2017,06,11,06,24,30.00
2017,06,11,06,25,30.00
2017,06,11,06,26,30.00
2017,06,11,06,27,30.00
2017,06,11,06,28,30.00
2017,06,11,06,29,30.00
2017,06,11,06,30,30.00
2017,06,11,06,31,30.00
2017,06,11,06,32,30.00
2017,06,11,06,33,31.60
2017,06,11,06,34,32.00
2017,06,11,06,35,32.00
2017,06,11,06,36,32.00
2017,06,11,06,37,32.40
2017,06,11,06,38,36.50
2017,06,11,06,39,49.00
2017,06,11,06,40,73.40
2017,06,11,06,41,99.10
2017,06,11,06,42,93.10
2017,06,11,06,43,61.30
2017,06,11,06,44,46.50
2017,06,11,06,45,46.40
2017,06,11,06,46,43.20
2017,06,11,06,47,43.60
2017,06,11,06,48,47.30
2017,06,11,06,49,51.40
2017,06,11,06,50,53.00
2017,06,11,06,51,53.40
2017,06,11,06,52,57.30
2017,06,11,06,53,61.40
2017,06,11,06,54,62.80
2017,06,11,06,55,70.50
2017,06,11,06,56,81.70
2017,06,11,06,57,93.30
2017,06,11,06,58,106.70
2017,06,11,06,59,122.50
2017,06,11,07,00,120.30
2017,06,11,07,01,119.70
2017,06,11,07,02,118.10
2017,06,11,07,03,134.00
2017,06,11,07,04,129.70
2017,06,11,07,05,108.50
2017,06,11,07,06,81.40
2017,06,11,07,07,94.50
2017,06,11,07,08,108.10
2017,06,11,07,09,136.40
2017,06,11,07,10,135.40
2017,06,11,07,11,105.30
2017,06,11,07,12,77.30
2017,06,11,07,13,83.30
2017,06,11,07,14,86.00
2017,06,11,07,15,79.70
2017,06,11,07,16,73.90
2017,06,11,07,17,72.60
2017,06,11,07,18,93.70
2017,06,11,07,19,122.80
2017,06,11,07,20,135.00
2017,06,11,07,21,136.40
2017,06,11,07,22,131.30
2017,06,11,07,23,132.60
2017,06,11,07,24,142.10
2017,06,11,07,25,146.70
2017,06,11,07,26,154.20
2017,06,11,07,27,179.20
2017,06,11,07,28,248.60
2017,06,11,07,29,258.00
2017,06,11,07,30,225.50
2017,06,11,07,31,190.20
2017,06,11,07,32,184.30
2017,06,11,07,33,186.80
2017,06,11,07,34,170.00
2017,06,11,07,35,161.80
2017,06,11,07,36,158.30
2017,06,11,07,37,158.10
2017,06,11,07,38,160.70
2017,06,11,07,39,164.30
2017,06,11,07,40,167.00
2017,06,11,07,41,170.00
2017,06,11,07,42,176.90
2017,06,11,07,43,188.40
2017,06,11,07,44,260.30
2017,06,11,07,45,255.90
2017,06,11,07,46,315.00
2017,06,11,07,47,243.00
2017,06,11,07,48,153.00
2017,06,11,07,49,298.00
2017,06,11,07,50,353.90
2017,06,11,07,51,347.40
2017,06,11,07,52,311.90
2017,06,11,07,53,314.30
2017,06,11,07,54,341.00
2017,06,11,07,55,319.10
2017,06,11,07,56,322.50
2017,06,11,07,57,335.00
2017,06,11,07,58,338.30
2017,06,11,07,59,341.90
2017,06,11,08,00,346.00
2017,06,11,08,01,350.40
2017,06,11,08,02,359.50
2017,06,11,08,03,368.90
2017,06,11,08,04,378.70
2017,06,11,08,05,388.40
2017,06,11,08,06,398.60
2017,06,11,08,07,406.30
2017,06,11,08,08,414.40
2017,06,11,08,09,424.50
2017,06,11,08,10,439.40
2017,06,11,08,11,452.30
2017,06,11,08,12,389.60
2017,06,11,08,13,444.20
2017,06,11,08,14,486.30
2017,06,11,08,15,506.80
2017,06,11,08,16,515.60
2017,06,11,08,17,533.30
2017,06,11,08,18,534.40
2017,06,11,08,19,511.60
2017,06,11,08,20,229.30
2017,06,11,08,21,220.00
2017,06,11,08,22,222.20
2017,06,11,08,23,226.20
2017,06,11,08,24,231.90
2017,06,11,08,25,263.80
2017,06,11,08,26,290.90
2017,06,11,08,27,224.10
2017,06,11,08,28,205.30
2017,06,11,08,29,198.60
2017,06,11,08,30,195.00
2017,06,11,08,31,202.70
2017,06,11,08,32,228.10
2017,06,11,08,33,255.10
2017,06,11,08,34,238.20
2017,06,11,08,35,260.00
2017,06,11,08,36,254.70
2017,06,11,08,37,242.70
2017,06,11,08,38,230.60
2017,06,11,08,39,216.40
2017,06,11,08,40,209.90
2017,06,11,08,41,216.90
2017,06,11,08,42,208.70
2017,06,11,08,43,200.90
2017,06,11,08,44,208.50
2017,06,11,08,45,229.20
2017,06,11,08,46,260.70
2017,06,11,08,47,304.90
2017,06,11,08,48,319.70
2017,06,11,08,49,302.00
2017,06,11,08,50,305.00
2017,06,11,08,51,320.20
2017,06,11,08,52,340.60
2017,06,11,08,53,397.00
2017,06,11,08,54,439.90
2017,06,11,08,55,351.40
2017,06,11,08,56,330.30
2017,06,11,08,57,380.10
2017,06,11,08,58,378.00
2017,06,11,08,59,346.50
2017,06,11,09,00,406.80
2017,06,11,09,01,417.00
2017,06,11,09,02,464.10
2017,06,11,09,03,629.00
2017,06,11,09,04,603.20
2017,06,11,09,05,571.00
2017,06,11,09,06,571.00
2017,06,11,09,07,622.10
2017,06,11,09,08,604.20
2017,06,11,09,09,268.60
2017,06,11,09,10,256.00
2017,06,11,09,11,234.00
2017,06,11,09,12,260.10
2017,06,11,09,13,230.50
2017,06,11,09,14,215.40
2017,06,11,09,15,221.50
2017,06,11,09,16,231.10
2017,06,11,09,17,237.00
2017,06,11,09,18,239.00
2017,06,11,09,19,439.80
2017,06,11,09,20,587.00
2017,06,11,09,21,587.00
2017,06,11,09,22,590.10
2017,06,11,09,23,629.00
2017,06,11,09,24,635.70
2017,06,11,09,25,637.00
2017,06,11,09,26,619.00
2017,06,11,09,27,612.10
2017,06,11,09,28,588.70
2017,06,11,09,29,582.10
2017,06,11,09,30,581.60
2017,06,11,09,31,580.70
2017,06,11,09,32,583.40
2017,06,11,09,33,583.20
2017,06,11,09,34,583.50
2017,06,11,09,35,580.60
2017,06,11,09,36,575.70
2017,06,11,09,37,580.90
2017,06,11,09,38,584.00
2017,06,11,09,39,584.50
2017,06,11,09,40,587.30
2017,06,11,09,41,593.90
2017,06,11,09,42,596.00
2017,06,11,09,43,598.70
2017,06,11,09,44,598.60
2017,06,11,09,45,601.70
2017,06,11,09,46,603.90
2017,06,11,09,47,605.60
2017,06,11,09,48,608.80
2017,06,11,09,49,612.40
2017,06,11,09,50,615.10
2017,06,11,09,51,617.00
2017,06,11,09,52,617.70
2017,06,11,09,53,620.30
2017,06,11,09,54,622.00
2017,06,11,09,55,624.90
2017,06,11,09,56,627.70
2017,06,11,09,57,629.20
2017,06,11,09,58,631.40
2017,06,11,09,59,634.00
2017,06,11,10,00,637.00
2017,06,11,10,01,639.20
2017,06,11,10,02,642.10
2017,06,11,10,03,646.30
2017,06,11,10,04,649.00
2017,06,11,10,05,650.40
2017,06,11,10,06,652.70
2017,06,11,10,07,654.90
2017,06,11,10,08,656.00
2017,06,11,10,09,658.10
2017,06,11,10,10,657.40
2017,06,11,10,11,662.60
2017,06,11,10,12,663.20
2017,06,11,10,13,664.70
2017,06,11,10,14,665.10
2017,06,11,10,15,666.40
2017,06,11,10,16,669.40
2017,06,11,10,17,670.80
2017,06,11,10,18,673.10
2017,06,11,10,19,675.40
2017,06,11,10,20,677.70
2017,06,11,10,21,679.50
2017,06,11,10,22,678.20
2017,06,11,10,23,686.90
2017,06,11,10,24,681.60
2017,06,11,10,25,688.70
2017,06,11,10,26,689.40
2017,06,11,10,27,691.70
2017,06,11,10,28,702.10
2017,06,11,10,29,705.50
2017,06,11,10,30,707.30
2017,06,11,10,31,708.30
2017,06,11,10,32,711.70
2017,06,11,10,33,711.10
2017,06,11,10,34,715.70
2017,06,11,10,35,718.00
2017,06,11,10,36,717.80
2017,06,11,10,37,717.00
2017,06,11,10,38,720.30
2017,06,11,10,39,719.60
2017,06,11,10,40,726.40
2017,06,11,10,41,728.00
2017,06,11,10,42,729.40
2017,06,11,10,43,732.20
2017,06,11,10,44,733.00
2017,06,11,10,45,736.30
2017,06,11,10,46,737.90
2017,06,11,10,47,738.10
2017,06,11,10,48,743.00
2017,06,11,10,49,746.00
2017,06,11,10,50,749.30
2017,06,11,10,51,753.10
2017,06,11,10,52,755.60
2017,06,11,10,53,756.40
2017,06,11,10,54,761.90
2017,06,11,10,55,765.30
2017,06,11,10,56,766.00
2017,06,11,10,57,765.40
2017,06,11,10,58,765.00
2017,06,11,10,59,771.00
2017,06,11,11,00,780.30
2017,06,11,11,01,790.80
2017,06,11,11,02,812.00
2017,06,11,11,03,840.70
2017,06,11,11,04,861.80
2017,06,11,11,05,863.10
2017,06,11,11,06,878.10
2017,06,11,11,07,881.10
2017,06,11,11,08,868.10
2017,06,11,11,09,845.70
2017,06,11,11,10,799.20
2017,06,11,11,11,771.70
2017,06,11,11,12,768.00
2017,06,11,11,13,877.00
2017,06,11,11,14,864.10
2017,06,11,11,15,877.10
2017,06,11,11,16,854.70
2017,06,11,11,17,872.00
2017,06,11,11,18,872.00
2017,06,11,11,19,830.50
2017,06,11,11,20,851.80
2017,06,11,11,21,859.20
2017,06,11,11,22,846.00
2017,06,11,11,23,807.30
2017,06,11,11,24,768.60
2017,06,11,11,25,808.30
2017,06,11,11,26,840.00
2017,06,11,11,27,840.00
2017,06,11,11,28,846.40
2017,06,11,11,29,853.30
2017,06,11,11,30,839.30
2017,06,11,11,31,840.90
2017,06,11,11,32,838.80
2017,06,11,11,33,806.10
2017,06,11,11,34,731.10
2017,06,11,11,35,778.60
2017,06,11,11,36,839.10
2017,06,11,11,37,873.70
2017,06,11,11,38,852.80
2017,06,11,11,39,848.90
2017,06,11,11,40,851.10
2017,06,11,11,41,858.00
2017,06,11,11,42,864.80
2017,06,11,11,43,865.00
2017,06,11,11,44,793.30
2017,06,11,11,45,650.00
2017,06,11,11,46,786.10
2017,06,11,11,47,904.90
2017,06,11,11,48,897.60
2017,06,11,11,49,892.20
2017,06,11,11,50,881.20
2017,06,11,11,51,880.30
2017,06,11,11,52,873.00
2017,06,11,11,53,862.10
2017,06,11,11,54,859.40
2017,06,11,11,55,811.10
2017,06,11,11,56,862.40
2017,06,11,11,57,861.90
2017,06,11,11,58,834.70
2017,06,11,11,59,797.30
2017,06,11,12,00,844.00
2017,06,11,12,01,862.40
2017,06,11,12,02,858.30
2017,06,11,12,03,857.80
2017,06,11,12,04,855.60
2017,06,11,12,05,854.00
2017,06,11,12,06,853.60
2017,06,11,12,07,853.00
2017,06,11,12,08,853.70
2017,06,11,12,09,854.00
2017,06,11,12,10,855.90
2017,06,11,12,11,856.00
2017,06,11,12,12,855.30
2017,06,11,12,13,856.90
2017,06,11,12,14,856.40
2017,06,11,12,15,853.30
2017,06,11,12,16,853.90
2017,06,11,12,17,856.10
2017,06,11,12,18,858.70
2017,06,11,12,19,861.00
2017,06,11,12,20,861.00
2017,06,11,12,21,863.40
2017,06,11,12,22,865.00
2017,06,11,12,23,861.60
2017,06,11,12,24,861.00
2017,06,11,12,25,861.90
2017,06,11,12,26,865.00
2017,06,11,12,27,867.30
2017,06,11,12,28,870.00
2017,06,11,12,29,870.00
2017,06,11,12,30,871.60
2017,06,11,12,31,871.90
2017,06,11,12,32,870.00
2017,06,11,12,33,871.30
2017,06,11,12,34,873.10
2017,06,11,12,35,873.70
2017,06,11,12,36,876.40
2017,06,11,12,37,877.00
2017,06,11,12,38,877.10
2017,06,11,12,39,879.40
2017,06,11,12,40,877.30
2017,06,11,12,41,872.40
2017,06,11,12,42,883.30
2017,06,11,12,43,893.90
2017,06,11,12,44,902.80
2017,06,11,12,45,902.40
2017,06,11,12,46,905.90
2017,06,11,12,47,912.10
2017,06,11,12,48,922.40
2017,06,11,12,49,935.10
2017,06,11,12,50,956.20
2017,06,11,12,51,982.60
2017,06,11,12,52,970.60
2017,06,11,12,53,969.40
2017,06,11,12,54,967.00
2017,06,11,12,55,892.80
2017,06,11,12,56,740.70
2017,06,11,12,57,676.10
2017,06,11,12,58,748.60
2017,06,11,12,59,829.30
2017,06,11,13,00,824.40
2017,06,11,13,01,770.00
2017,06,11,13,02,830.70
2017,06,11,13,03,881.00
2017,06,11,13,04,769.10
2017,06,11,13,05,692.40
2017,06,11,13,06,711.10
2017,06,11,13,07,732.70
2017,06,11,13,08,781.70
2017,06,11,13,09,725.40
2017,06,11,13,10,704.90
2017,06,11,13,11,698.00
2017,06,11,13,12,698.00
2017,06,11,13,13,827.60
2017,06,11,13,14,893.30
2017,06,11,13,15,877.00
2017,06,11,13,16,927.10
2017,06,11,13,17,938.30
2017,06,11,13,18,958.30
2017,06,11,13,19,965.40
2017,06,11,13,20,978.90
2017,06,11,13,21,958.70
2017,06,11,13,22,940.00
2017,06,11,13,23,930.20
2017,06,11,13,24,925.20
2017,06,11,13,25,916.70
2017,06,11,13,26,909.90
2017,06,11,13,27,905.10
2017,06,11,13,28,903.60
2017,06,11,13,29,904.30
2017,06,11,13,30,885.40
2017,06,11,13,31,856.00
2017,06,11,13,32,904.60
2017,06,11,13,33,925.00
2017,06,11,13,34,963.50
2017,06,11,13,35,898.10
2017,06,11,13,36,664.00
2017,06,11,13,37,715.20
2017,06,11,13,38,806.40
2017,06,11,13,39,867.40
2017,06,11,13,40,852.50
2017,06,11,13,41,847.00
2017,06,11,13,42,847.00
2017,06,11,13,43,847.00
2017,06,11,13,44,848.80
2017,06,11,13,45,851.00
2017,06,11,13,46,972.00
2017,06,11,13,47,1015.70
2017,06,11,13,48,999.90
2017,06,11,13,49,988.80
2017,06,11,13,50,970.70
2017,06,11,13,51,949.60
2017,06,11,13,52,937.50
2017,06,11,13,53,929.50
2017,06,11,13,54,920.30
2017,06,11,13,55,916.30
2017,06,11,13,56,917.60
2017,06,11,13,57,912.30
2017,06,11,13,58,882.40
2017,06,11,13,59,883.40
2017,06,11,14,00,897.60
2017,06,11,14,01,876.40
2017,06,11,14,02,893.60
2017,06,11,14,03,887.60
2017,06,11,14,04,885.30
2017,06,11,14,05,883.10
2017,06,11,14,06,882.00
2017,06,11,14,07,881.30
2017,06,11,14,08,877.60
2017,06,11,14,09,879.10
2017,06,11,14,10,880.60
2017,06,11,14,11,878.30
2017,06,11,14,12,876.10
2017,06,11,14,13,878.60
2017,06,11,14,14,878.20
2017,06,11,14,15,877.00
2017,06,11,14,16,876.80
2017,06,11,14,17,873.60
2017,06,11,14,18,871.30
2017,06,11,14,19,870.90
2017,06,11,14,20,870.80
2017,06,11,14,21,870.00
2017,06,11,14,22,873.30
2017,06,11,14,23,871.90
2017,06,11,14,24,869.60
2017,06,11,14,25,868.00
2017,06,11,14,26,868.00
2017,06,11,14,27,867.40
2017,06,11,14,28,867.00
2017,06,11,14,29,867.90
2017,06,11,14,30,867.50
2017,06,11,14,31,861.40
2017,06,11,14,32,862.00
2017,06,11,14,33,859.10
2017,06,11,14,34,858.00
2017,06,11,14,35,858.00
2017,06,11,14,36,859.70
2017,06,11,14,37,858.10
2017,06,11,14,38,857.60
2017,06,11,14,39,856.00
2017,06,11,14,40,855.10
2017,06,11,14,41,853.40
2017,06,11,14,42,853.70
2017,06,11,14,43,854.00
2017,06,11,14,44,851.10
2017,06,11,14,45,849.00
2017,06,11,14,46,849.00
2017,06,11,14,47,847.60
2017,06,11,14,48,846.00
2017,06,11,14,49,846.00
2017,06,11,14,50,850.30
2017,06,11,14,51,844.50
2017,06,11,14,52,845.10
2017,06,11,14,53,842.00
2017,06,11,14,54,841.00
2017,06,11,14,55,840.00
2017,06,11,14,56,838.60
2017,06,11,14,57,838.00
2017,06,11,14,58,831.40
2017,06,11,14,59,833.40
2017,06,11,15,00,833.70
2017,06,11,15,01,831.00
2017,06,11,15,02,831.00
2017,06,11,15,03,828.80
2017,06,11,15,04,826.30
2017,06,11,15,05,828.10
2017,06,11,15,06,830.00
2017,06,11,15,07,829.30
2017,06,11,15,08,828.00
2017,06,11,15,09,826.80
2017,06,11,15,10,823.80
2017,06,11,15,11,823.00
2017,06,11,15,12,821.30
2017,06,11,15,13,822.60
2017,06,11,15,14,821.00
2017,06,11,15,15,822.40
2017,06,11,15,16,823.40
2017,06,11,15,17,821.60
2017,06,11,15,18,817.70
2017,06,11,15,19,820.80
2017,06,11,15,20,821.40
2017,06,11,15,21,823.00
2017,06,11,15,22,823.00
2017,06,11,15,23,823.00
2017,06,11,15,24,825.20
2017,06,11,15,25,826.00
2017,06,11,15,26,831.30
2017,06,11,15,27,839.70
2017,06,11,15,28,857.70
2017,06,11,15,29,879.00
2017,06,11,15,30,879.00
2017,06,11,15,31,521.50
2017,06,11,15,32,448.00
2017,06,11,15,33,462.00
2017,06,11,15,34,462.00
2017,06,11,15,35,584.00
2017,06,11,15,36,828.00
2017,06,11,15,37,532.00
2017,06,11,15,38,293.90
2017,06,11,15,39,360.80
2017,06,11,15,40,417.50
2017,06,11,15,41,900.80
2017,06,11,15,42,846.70
2017,06,11,15,43,819.60
2017,06,11,15,44,800.70
2017,06,11,15,45,788.70
2017,06,11,15,46,777.00
2017,06,11,15,47,769.80
2017,06,11,15,48,765.00
2017,06,11,15,49,763.70
2017,06,11,15,50,761.90
2017,06,11,15,51,764.20
2017,06,11,15,52,765.00
2017,06,11,15,53,767.60
2017,06,11,15,54,769.60
2017,06,11,15,55,764.60
2017,06,11,15,56,761.60
2017,06,11,15,57,758.60
2017,06,11,15,58,758.00
2017,06,11,15,59,755.20
2017,06,11,16,00,757.30
2017,06,11,16,01,763.30
2017,06,11,16,02,770.40
2017,06,11,16,03,772.00
2017,06,11,16,04,772.50
2017,06,11,16,05,772.40
2017,06,11,16,06,713.60
2017,06,11,16,07,755.00
2017,06,11,16,08,770.70
2017,06,11,16,09,779.00
2017,06,11,16,10,767.70
2017,06,11,16,11,781.60
2017,06,11,16,12,821.00
2017,06,11,16,13,467.00
2017,06,11,16,14,318.00
2017,06,11,16,15,708.70
2017,06,11,16,16,720.10
2017,06,11,16,17,716.30
2017,06,11,16,18,714.60
2017,06,11,16,19,714.60
2017,06,11,16,20,716.40
2017,06,11,16,21,718.60
2017,06,11,16,22,721.00
2017,06,11,16,23,723.70
2017,06,11,16,24,736.30
2017,06,11,16,25,764.30
2017,06,11,16,26,786.00
2017,06,11,16,27,786.00
2017,06,11,16,28,786.00
2017,06,11,16,29,783.80
2017,06,11,16,30,757.60
2017,06,11,16,31,723.50
2017,06,11,16,32,711.90
2017,06,11,16,33,706.20
2017,06,11,16,34,702.20
2017,06,11,16,35,698.60
2017,06,11,16,36,700.80
2017,06,11,16,37,696.10
2017,06,11,16,38,763.00
2017,06,11,16,39,763.00
2017,06,11,16,40,763.00
2017,06,11,16,41,763.00
2017,06,11,16,42,744.30
2017,06,11,16,43,718.50
2017,06,11,16,44,454.00
2017,06,11,16,45,444.00
2017,06,11,16,46,383.10
2017,06,11,16,47,367.00
2017,06,11,16,48,637.20
2017,06,11,16,49,739.90
2017,06,11,16,50,719.70
2017,06,11,16,51,737.70
2017,06,11,16,52,719.00
2017,06,11,16,53,679.90
2017,06,11,16,54,631.00
2017,06,11,16,55,631.00
2017,06,11,16,56,376.00
2017,06,11,16,57,335.60
2017,06,11,16,58,486.70
2017,06,11,16,59,503.00
2017,06,11,17,00,598.10
2017,06,11,17,01,729.40
2017,06,11,17,02,733.10
2017,06,11,17,03,662.60
2017,06,11,17,04,723.70
2017,06,11,17,05,698.00
2017,06,11,17,06,698.00
2017,06,11,17,07,675.30